Broomfield, CO

7:16 PM MDT on May 20, 2018 (GMT -0600)
Jeffco

Weather History for KBJC - January, 2012

Change the Weather History Date:

Saturday, January 7, 2012

  Actual Average Record
Temperature  
Mean Temperature 30 °F -  
Max Temperature 37 °F 44 °F 68 °F (2006)
Min Temperature 24 °F 23 °F 7 °F (1991)
Degree Days  
Heating Degree Days 34    
Moisture  
Dew Point 22 °F    
Average Humidity 73    
Maximum Humidity 100    
Minimum Humidity 48    
Precipitation  
Precipitation 0.00 in - - ()
Sea Level Pressure  
Sea Level Pressure 30.00 in    
Wind  
Wind Speed 5 mph (NW)    
Max Wind Speed 9 mph    
Max Gust Speed -    
Visibility 8 miles    
Events Snow    
Averages and records for this station are not official NWS values.
T = Trace of Precipitation, MM = Missing Value Source: NWS Daily Summary

Daily Weather History Graph

Daily Weather History Graph

Search for Another Location

Airport or City:

Astronomy

Jan. 07, 2012 Rise Set
Actual Time 7:22 AM MST 4:51 PM MST
Civil Twilight 6:52 AM MST 5:21 PM MST
Nautical Twilight 6:18 AM MST 5:55 PM MST
Astronomical Twilight 5:45 AM MST 6:27 PM MST
Moon 3:37 PM MST (1/7) 5:55 AM MST (1/7)
Length of Visible Light 10h 29m
Length of Day
9h 29m
Waxing Gibbous, 98% of the Moon is Illuminated
Jan 7
Waxing Gibbous
Jan 9
Full
Jan 16
Last Quarter
Jan 23
New
Jan 30
First Quarter

Hourly Weather History & Observations

Time (MST) Temp. Windchill Dew Point Humidity Pressure Visibility Wind Dir Wind Speed Gust Speed Precip Events Conditions
12:02 AM 30.2 °F 23.4 °F 21.2 °F 69% 29.99 in 10.0 mi NW 6.9 mph - N/A   Clear
12:22 AM 30.2 °F 22.6 °F 21.2 °F 69% 29.99 in 10.0 mi NNW 8.1 mph - N/A   Clear
12:42 AM 30.2 °F 22.6 °F 21.2 °F 69% 29.99 in 10.0 mi NNW 8.1 mph - N/A   Clear
1:02 AM 30.2 °F 22.6 °F 21.2 °F 69% 29.98 in 10.0 mi NW 8.1 mph - N/A   Clear
1:22 AM 30.2 °F 24.3 °F 21.2 °F 69% 29.98 in 10.0 mi NW 5.8 mph - N/A   Clear
1:42 AM 30.2 °F 24.3 °F 21.2 °F 69% 29.96 in 10.0 mi NNW 5.8 mph - N/A   Clear
2:02 AM 30.2 °F 22.6 °F 21.2 °F 69% 29.97 in 10.0 mi NW 8.1 mph - N/A   Clear
2:22 AM 30.2 °F 25.4 °F 21.2 °F 69% 29.96 in 10.0 mi North 4.6 mph - N/A   Clear
2:42 AM 28.4 °F - 21.2 °F 74% 29.97 in 10.0 mi Calm Calm - N/A   Clear
3:02 AM 28.4 °F - 21.2 °F 74% 29.96 in 10.0 mi Calm Calm - N/A   Clear
3:22 AM 26.6 °F - 21.2 °F 80% 29.95 in 10.0 mi Calm Calm - N/A   Clear
3:42 AM 26.6 °F 21.2 °F 21.2 °F 80% 29.95 in 10.0 mi NW 4.6 mph - N/A   Clear
4:02 AM 26.6 °F - 19.4 °F 74% 29.94 in 10.0 mi Calm Calm - N/A   Clear
4:22 AM 24.8 °F - 19.4 °F 80% 29.93 in 10.0 mi Calm Calm - N/A   Clear
4:42 AM 26.6 °F 22.6 °F 19.4 °F 74% 29.92 in 10.0 mi NW 3.5 mph - N/A   Clear
5:50 AM 24.8 °F - 17.6 °F 74% 29.92 in 30.0 mi Calm Calm - N/A   Scattered Clouds
6:50 AM 24.8 °F 20.5 °F 17.6 °F 74% 29.91 in 30.0 mi West 3.5 mph - N/A   Mostly Cloudy
9:47 AM 28.4 °F 23.3 °F 19.4 °F 69% 29.94 in 25.0 mi North 4.6 mph - N/A   Mostly Cloudy
10:48 AM 32.0 °F 27.5 °F 21.2 °F 64% 29.93 in 30.0 mi West 4.6 mph - N/A   Mostly Cloudy
11:47 AM 35.6 °F 30.7 °F 19.4 °F 52% 29.92 in 25.0 mi NNW 5.8 mph - N/A   Mostly Cloudy
12:47 PM 37.4 °F 31.4 °F 19.4 °F 48% 29.90 in 25.0 mi NW 8.1 mph - N/A   Mostly Cloudy
1:49 PM 37.4 °F 32.8 °F 21.2 °F 52% 29.92 in 25.0 mi West 5.8 mph - N/A   Mostly Cloudy
2:53 PM 35.6 °F 29.9 °F 26.6 °F 70% 29.95 in 3.0 mi ENE 6.9 mph - N/A Snow Light Snow
3:34 PM 32.0 °F 26.4 °F 28.4 °F 87% 29.98 in 1.5 mi NNW 5.8 mph - N/A Snow Light Snow
3:48 PM 32.0 °F 25.6 °F 28.4 °F 87% 29.99 in 1.5 mi NNW 6.9 mph - N/A Snow Light Snow
4:45 PM 32.0 °F 26.4 °F 28.4 °F 87% 30.02 in 1.5 mi NNW 5.8 mph - N/A Snow Light Snow
5:46 PM 32.0 °F 25.6 °F 30.2 °F 93% 30.06 in 1.0 mi NNW 6.9 mph - N/A Snow Light Snow
6:25 PM 30.2 °F 23.4 °F 30.2 °F 100% 30.08 in 4.0 mi NNW 6.9 mph - N/A Snow Light Snow
7:45 PM 30.2 °F 21.9 °F 26.6 °F 86% 30.10 in 8.0 mi WNW 9.2 mph - N/A   Overcast
8:46 PM 30.2 °F 22.6 °F 23.0 °F 75% 30.10 in 10.0 mi NNW 8.1 mph - N/A   Mostly Cloudy
9:46 PM 26.6 °F 18.2 °F 19.4 °F 74% 30.12 in 10.0 mi NNW 8.1 mph - N/A   Mostly Cloudy
10:01 PM 28.4 °F 22.2 °F 19.4 °F 69% 30.12 in 10.0 mi NNW 5.8 mph - N/A   Clear
10:22 PM 28.4 °F 23.3 °F 21.2 °F 74% 30.13 in 10.0 mi NNW 4.6 mph - N/A   Clear
10:42 PM 28.4 °F - 21.2 °F 74% 30.13 in 10.0 mi Calm Calm - N/A   Clear
11:02 PM 28.4 °F - 19.4 °F 69% 30.13 in 10.0 mi Calm Calm - N/A   Clear
11:22 PM 28.4 °F - 19.4 °F 69% 30.13 in 10.0 mi Calm Calm - N/A   Clear
11:42 PM 28.4 °F - 19.4 °F 69% 30.13 in 10.0 mi Calm Calm - N/A   Clear